Weather History for KEVV - May, 2014

Change the Weather History Date:

Monday, May 26, 2014

  Actual Average Record
Temperature  
Mean Temperature 76 °F 69 °F  
Max Temperature 89 °F 80 °F 96 °F (1911)
Min Temperature 63 °F 58 °F 38 °F (1979)
Degree Days  
Heating Degree Days 0 1  
Month to date heating degree days 92 81  
Since 1 July heating degree days 4980 4536  
Cooling Degree Days 11 5  
Month to date cooling degree days 138 79  
Year to date cooling degree days 148 106  
Growing Degree Days 26 (Base 50)    
Moisture  
Dew Point 63 °F    
Average Humidity 64    
Maximum Humidity 84    
Minimum Humidity 43    
Precipitation  
Precipitation 0.00 in 0.18 in 3.28 in (1981)
Month to date precipitation 3.66 4.50  
Year to date precipitation 21.43 19.38  
Snow  
Snow 0.00 in 0.00 in 0.00 in (2002)
Month to date snowfall 0.0 0.0  
Since 1 July snowfall 12.6 11.8  
Snow Depth 0.00 in    
Sea Level Pressure  
Sea Level Pressure 30.06 in    
Wind  
Wind Speed 5 mph (SW)    
Max Wind Speed 16 mph    
Max Gust Speed 20 mph    
Visibility 10 miles    
Events      
T = Trace of Precipitation, MM = Missing Value Source: NWS Daily Summary

Daily Weather History Graph

Daily Weather History Graph

Search for Another Location

Airport or City:

Trip Planner

Search our weather history database for the weather conditions in past years. The results will help you decide how hot, cold, wet, or windy it might be!

Date:

Astronomy

May. 26, 2014 Rise Set
Actual Time 5:31 AM CDT 8:02 PM CDT
Civil Twilight 5:01 AM CDT 8:33 PM CDT
Nautical Twilight 4:23 AM CDT 9:11 PM CDT
Astronomical Twilight 3:41 AM CDT 9:53 PM CDT
Moon 4:11 AM CDT (5/26) 6:07 PM CDT (5/26)
Length of Visible Light 15h 31m
Length of Day
14h 30m
Waning Crescent, 5% of the Moon is Illuminated
May 26
Waning Crescent
May 28
New
Jun 5
First Quarter
Jun 12
Full
Jun 19
Last Quarter

Hourly Weather History & Observations

Time (CDT) Temp. Heat Index Dew Point Humidity Pressure Visibility Wind Dir Wind Speed Gust Speed Precip Events Conditions
12:54 AM 66.0 °F - 59.0 °F 78% 30.08 in 10.0 mi Calm Calm - N/A   Clear
1:54 AM 66.0 °F - 59.0 °F 78% 30.07 in 10.0 mi NNE 3.5 mph - N/A   Clear
2:54 AM 64.9 °F - 59.0 °F 81% 30.06 in 10.0 mi Calm Calm - N/A   Clear
3:54 AM 64.9 °F - 59.0 °F 81% 30.06 in 10.0 mi Calm Calm - N/A   Clear
4:54 AM 64.9 °F - 57.9 °F 78% 30.07 in 10.0 mi Calm Calm - N/A   Clear
5:54 AM 64.0 °F - 59.0 °F 84% 30.09 in 10.0 mi Calm Calm - N/A   Clear
6:54 AM 66.0 °F - 59.0 °F 78% 30.11 in 10.0 mi Calm Calm - N/A   Clear
7:54 AM 70.0 °F - 61.0 °F 73% 30.11 in 10.0 mi SW 3.5 mph - N/A   Clear
8:54 AM 75.9 °F - 64.0 °F 67% 30.11 in 10.0 mi SSW 6.9 mph - N/A   Clear
9:54 AM 79.0 °F - 64.0 °F 60% 30.11 in 10.0 mi SSW 6.9 mph - N/A   Clear
10:54 AM 81.0 °F 81.9 °F 62.1 °F 52% 30.10 in 10.0 mi SW 5.8 mph - N/A   Clear
11:54 AM 84.0 °F 85.4 °F 64.0 °F 51% 30.09 in 10.0 mi WSW 8.1 mph - N/A   Clear
12:54 PM 86.0 °F 87.6 °F 64.9 °F 49% 30.07 in 10.0 mi SSW 8.1 mph - N/A   Scattered Clouds
1:54 PM 87.1 °F 88.3 °F 64.0 °F 46% 30.05 in 7.0 mi WSW 13.8 mph - N/A   Scattered Clouds
2:54 PM 87.1 °F 88.3 °F 64.0 °F 46% 30.03 in 10.0 mi WSW 11.5 mph - N/A   Partly Cloudy
3:54 PM 88.0 °F 88.7 °F 63.0 °F 43% 30.02 in 10.0 mi SW 8.1 mph - N/A   Clear
4:54 PM 87.1 °F 87.8 °F 63.0 °F 44% 30.00 in 10.0 mi SW 10.4 mph - N/A   Partly Cloudy
5:54 PM 87.1 °F 87.8 °F 63.0 °F 44% 29.99 in 10.0 mi SW 13.8 mph - N/A   Partly Cloudy
6:54 PM 84.9 °F 86.6 °F 64.9 °F 51% 30.01 in 10.0 mi WSW 8.1 mph - N/A   Scattered Clouds
7:54 PM 82.0 °F 83.8 °F 64.9 °F 56% 30.01 in 10.0 mi NW 4.6 mph - N/A   Clear
8:54 PM 78.1 °F - 66.0 °F 66% 30.02 in 10.0 mi East 3.5 mph - N/A   Clear
9:54 PM 75.9 °F - 66.9 °F 74% 30.04 in 10.0 mi NE 3.5 mph - N/A   Clear
10:54 PM 75.0 °F - 66.0 °F 73% 30.04 in 10.0 mi Calm Calm - N/A   Clear
11:54 PM 73.0 °F - 66.9 °F 81% 30.04 in 10.0 mi Calm Calm - N/A   Clear